Regional Weather Roundup
Issued by NWS

Home | Current Version | Previous Version | Text Only | Print | Product List | Glossary Off
Versions: 1 2 3 4 5 6 7 8 9 10 11 12 13 14 15 16 17 18 19 20 21 22 23 24 25 26 27 28 29 30 31 32 33 34 35 36 37 38 39 40 41 42 43 44 45 46 47 48 49 50

000
ASUS43 KOAX 271502
RWRNE

WEATHER ROUNDUP FOR NEBRASKA
NATIONAL WEATHER SERVICE OMAHA NE
900 AM CST THU NOV 27 2014

NOTES: SATELLITE DATA IS BEING USED TO AUGMENT CLOUD COVER ABOVE
       12000 FEET.
       "FAIR" INDICATES FEW OR NO CLOUDS BELOW 12,000 FEET WITH NO
       SIGNIFICANT WEATHER AND/OR OBSTRUCTIONS TO VISIBILITY.

  * THESE STATIONS DO NOT REPORT WEATHER SUCH AS RAIN...SNOW OR FOG.

NEZ001>004-019>022-054>056-271600-
NEBRASKA PANHANDLE

CITY           SKY/WX    TMP DP  RH WIND       PRES   REMARKS
SCOTTSBLUFF    MOCLDY    19  17  92 CALM      30.15S
ALLIANCE       PTCLDY    21  19  92 S6        30.13S WCI  13
CHADRON        CLOUDY   N/A N/A N/A CALM      30.11F
SIDNEY         MOCLDY    32  28  85 SW13      30.16S WCI  22
$$

NEZ057>060-069>072-079>082-271600-
SOUTHWEST NEBRASKA

CITY           SKY/WX    TMP DP  RH WIND       PRES   REMARKS
NORTH PLATTE   MOSUNNY   21  17  84 SE8       30.26F WCI  11
IMPERIAL       MOSUNNY   23  19  85 CALM      30.23R
LEXINGTON      MOSUNNY   24  19  80 SE13      30.34S WCI  12
MCCOOK         SUNNY     24  18  77 SE6       30.29F WCI  17
$$

NEZ005>010-023>029-035>040-094-271600-
NORTH CENTRAL NEBRASKA

CITY           SKY/WX    TMP DP  RH WIND       PRES   REMARKS
VALENTINE      CLOUDY    24  17  74 SE14      30.23F WCI  12
AINSWORTH      CLOUDY    20  15  79 SE16      30.25F WCI   6
BROKEN BOW     MOSUNNY   21  15  78 SE14G24   30.31F WCI   8
ORD            MOSUNNY   19  11  70 SE9       30.37F WCI   8
$$

NEZ041-046>049-061>064-073>077-083>087-271600-
SOUTH CENTRAL NEBRASKA

CITY           SKY/WX    TMP DP  RH WIND       PRES   REMARKS
GRAND ISLAND   SUNNY     20  12  71 SE9       30.45F WCI   9
AURORA         PTSUNNY   19  11  71 SE6       30.46S WCI  11
HASTINGS       SUNNY     20  12  71 S9        30.45R WCI   9
KEARNEY *      MOSUNNY   21  16  79 E12       30.41S WCI   9
YORK           CLOUDY    18  10  73 S5        30.48S WCI  11
$$

NEZ011>018-030>034-042>045-271600-
NORTHEAST NEBRASKA

CITY           SKY/WX    TMP DP  RH WIND       PRES   REMARKS
NORFOLK        CLOUDY    16   9  74 SE8       30.46R WCI   5
BLAIR          CLOUDY    15   6  65 NE3       30.50S
COLUMBUS *     CLOUDY    18   7  62 SE6       30.50R WCI   9
TEKAMAH        CLOUDY    12  -4  48 N6        30.55R WCI   3
$$

NEZ050>053-065>068-078-088>093-271600-
SOUTHEAST NEBRASKA

CITY           SKY/WX    TMP DP  RH WIND       PRES   REMARKS
LINCOLN        CLOUDY    18  11  74 SE3       30.53S
OMAHA EPPLEY   PTSUNNY   16   6  65 N5        30.55R WCI   9
FALLS CITY     CLOUDY    22  13  68 N5        30.54R WCI  16
NEBRASKA CITY  CLOUDY    18   9  68 CALM      30.53R
PLATTSMOUTH    CLOUDY    17  10  74 CALM      30.53R
$$

NEZ044-045-051>053-067-271600-
OMAHA AREA

CITY           SKY/WX    TMP DP  RH WIND       PRES   REMARKS
OMAHA EPPLEY   PTSUNNY   16   6  65 N5        30.55R WCI   9
BLAIR          CLOUDY    15   6  65 NE3       30.50S
OFFUTT AFB     CLOUDY    17   9  72 NE7       30.53R WCI   7
PLATTSMOUTH    CLOUDY    17  10  74 CALM      30.53R
WAHOO          CLOUDY    18  11  75 E3        30.51S
$$


USA.gov is the U.S. government's official web portal to all federal, state and local government web resources and services.